AEA2152 LEMD-SLVR

Flight info

Callsign AEA2152
Flight time N/A
Altitude 34000
Route CCS6L CCS ELVAR IRKID 33N020W 28N030W 26N035W 23N040W 21N045W MUNTR 11N055W TRAPP UM527 TIM UL322 VIR
Aircraft B788/M-V/N

Departure

Time 2026-05-04 06:18
Airport Adolfo Suárez Madrid–Barajas Airport (LEMD)

Arrival

Time N/A
Airport Viru Viru International Airport (SLVR)
Time Latitude Longitude Altitude Speed Heading
2026-05-04 06:11 40.49072 -3.56984 2018 ft 0 kts 122°
2026-05-04 06:13 40.49070 -3.56983 2018 ft 1 kts 135°
2026-05-04 06:14 40.49056 -3.57240 2018 ft 9 kts 272°
2026-05-04 06:14 40.49078 -3.57314 2018 ft 9 kts 303°
2026-05-04 06:15 40.49116 -3.57385 2018 ft 11 kts 311°
2026-05-04 06:15 40.49173 -3.57456 2018 ft 11 kts 321°
2026-05-04 06:15 40.49231 -3.57469 2018 ft 4 kts
2026-05-04 06:15 40.49235 -3.57469 2018 ft 0 kts
2026-05-04 06:17 40.49426 -3.57467 2018 ft 57 kts
2026-05-04 06:17 40.50049 -3.57464 2018 ft 123 kts
2026-05-04 06:17 40.51143 -3.57456 2018 ft 190 kts
2026-05-04 06:17 40.52685 -3.57444 2134 ft 241 kts
2026-05-04 06:18 40.54340 -3.57408 3429 ft 239 kts
2026-05-04 06:18 40.56084 -3.57683 4127 ft 276 kts 340°
2026-05-04 06:18 40.57834 -3.59082 4828 ft 314 kts 317°
2026-05-04 06:20 40.63661 -3.78898 10005 ft 349 kts 272°
2026-05-04 06:20 40.63711 -3.81868 10702 ft 352 kts 270°
2026-05-04 06:21 40.63626 -3.94988 13709 ft 366 kts 269°
2026-05-04 06:21 40.63573 -3.98360 14463 ft 370 kts 269°
2026-05-04 06:22 40.63517 -4.01740 15198 ft 375 kts 269°
2026-05-04 06:22 40.63457 -4.05216 15957 ft 378 kts 269°
2026-05-04 06:25 40.62215 -4.52970 23131 ft 424 kts 255°
2026-05-04 06:25 40.61136 -4.56752 23658 ft 428 kts 246°
2026-05-04 06:26 40.59720 -4.60198 24164 ft 433 kts 240°
2026-05-04 06:26 40.58091 -4.63528 24668 ft 437 kts 237°
2026-05-04 06:26 40.56310 -4.66842 25179 ft 441 kts 236°
2026-05-04 06:26 40.54473 -4.70090 25682 ft 445 kts 234°
2026-05-04 06:27 40.46796 -4.83161 27632 ft 459 kts 234°
2026-05-04 06:28 40.44837 -4.86487 28021 ft 464 kts 234°
2026-05-04 06:28 40.42840 -4.89884 28403 ft 468 kts 234°
2026-05-04 06:28 40.40874 -4.93238 28776 ft 470 kts 234°
2026-05-04 06:28 40.38879 -4.96651 29152 ft 471 kts 234°
2026-05-04 06:29 40.36878 -5.00080 29528 ft 473 kts 234°
2026-05-04 06:29 40.34884 -5.03504 29902 ft 475 kts 234°
2026-05-04 06:29 40.32876 -5.06956 30277 ft 476 kts 234°
2026-05-04 06:29 40.30845 -5.10449 30656 ft 478 kts 234°
2026-05-04 06:30 40.28843 -5.13897 31028 ft 480 kts 234°
2026-05-04 06:30 40.26795 -5.17424 31407 ft 483 kts 234°
2026-05-04 06:30 40.24775 -5.20904 31780 ft 485 kts 234°
2026-05-04 06:30 40.22711 -5.24458 32159 ft 487 kts 234°
2026-05-04 06:31 40.20672 -5.27969 32532 ft 488 kts 234°
2026-05-04 06:31 40.18606 -5.31523 32908 ft 489 kts 234°
2026-05-04 06:31 40.16542 -5.35069 33282 ft 489 kts 234°
2026-05-04 06:31 40.14498 -5.38579 33653 ft 489 kts 234°
2026-05-04 06:32 40.12433 -5.42123 33883 ft 492 kts 234°
2026-05-04 06:33 39.97804 -5.67132 33995 ft 492 kts 234°
2026-05-04 06:34 39.93654 -5.74192 33996 ft 492 kts 234°
2026-05-04 06:34 39.89482 -5.81274 33996 ft 491 kts 234°
2026-05-04 06:36 39.72815 -6.09417 33996 ft 490 kts 234°
2026-05-04 06:37 39.68661 -6.16392 33996 ft 490 kts 234°
2026-05-04 06:37 39.64476 -6.23405 33996 ft 490 kts 234°
2026-05-04 06:38 39.60312 -6.30367 33996 ft 490 kts 234°
2026-05-04 06:40 39.47771 -6.56441 33996 ft 487 kts 247°
2026-05-04 06:40 39.46413 -6.60418 33996 ft 487 kts 248°
2026-05-04 06:40 39.43718 -6.68520 33996 ft 487 kts 248°
2026-05-04 06:41 39.41054 -6.76601 33996 ft 487 kts 248°
2026-05-04 06:41 39.38386 -6.84669 33996 ft 487 kts 248°
2026-05-04 06:42 39.35711 -6.92702 33996 ft 487 kts 248°
2026-05-04 06:44 39.24859 -7.24761 33996 ft 487 kts 247°
2026-05-04 06:44 39.22104 -7.32797 33996 ft 487 kts 247°
2026-05-04 06:45 39.19358 -7.40775 33996 ft 487 kts 247°
2026-05-04 06:45 39.16614 -7.48717 33996 ft 487 kts 247°
2026-05-04 06:46 39.13850 -7.56693 33996 ft 487 kts 247°
2026-05-04 06:46 39.11082 -7.64653 33996 ft 487 kts 247°
2026-05-04 06:48 38.99936 -7.96469 33996 ft 488 kts 247°
2026-05-04 06:50 38.88677 -8.28250 33996 ft 488 kts 246°
2026-05-04 06:51 38.86333 -8.34823 33996 ft 488 kts 246°
2026-05-04 06:51 38.83037 -8.44041 33996 ft 488 kts 246°
2026-05-04 06:52 38.80659 -8.50673 33996 ft 488 kts 246°
2026-05-04 06:52 38.77827 -8.58551 33996 ft 488 kts 246°
2026-05-04 06:53 38.74977 -8.66461 33996 ft 488 kts 246°
2026-05-04 06:53 38.72130 -8.74338 33996 ft 488 kts 246°
2026-05-04 06:54 38.69270 -8.82234 33996 ft 488 kts 246°
2026-05-04 06:54 38.66409 -8.90109 33996 ft 488 kts 246°
2026-05-04 06:55 38.63549 -8.97961 33996 ft 488 kts 246°
2026-05-04 06:55 38.60662 -9.05864 33996 ft 488 kts 246°
2026-05-04 06:57 38.49118 -9.37269 33996 ft 488 kts 246°
2026-05-04 06:58 38.46227 -9.45081 33996 ft 488 kts 246°
2026-05-04 06:58 38.43310 -9.52945 33996 ft 488 kts 246°
2026-05-04 06:59 38.40403 -9.60759 33996 ft 488 kts 246°
2026-05-04 06:59 38.37502 -9.68539 33996 ft 488 kts 246°
2026-05-04 07:01 38.25778 -9.99776 33996 ft 488 kts 245°
2026-05-04 07:02 38.22831 -10.07577 33996 ft 488 kts 245°
2026-05-04 07:02 38.19899 -10.15321 33996 ft 488 kts 245°
2026-05-04 07:03 38.16941 -10.23112 33996 ft 488 kts 245°
2026-05-04 07:03 38.13993 -10.30857 33996 ft 488 kts 245°
2026-05-04 07:04 38.11025 -10.38635 33996 ft 488 kts 245°
2026-05-04 07:04 38.08056 -10.46395 33996 ft 488 kts 245°
2026-05-04 07:05 38.05091 -10.54125 33996 ft 488 kts 245°
2026-05-04 07:05 38.02093 -10.61921 33996 ft 488 kts 245°
2026-05-04 07:06 37.97633 -10.73485 33996 ft 488 kts 245°
2026-05-04 07:07 37.94634 -10.81235 33996 ft 488 kts 245°
2026-05-04 07:09 37.82621 -11.12090 33996 ft 488 kts 245°
2026-05-04 07:09 37.79606 -11.19785 33996 ft 488 kts 245°
2026-05-04 07:10 37.76589 -11.27467 33996 ft 488 kts 245°
2026-05-04 07:12 37.64454 -11.58173 33996 ft 488 kts 244°
2026-05-04 07:12 37.61402 -11.65848 33996 ft 488 kts 244°
2026-05-04 07:13 37.58344 -11.73522 33996 ft 488 kts 244°
2026-05-04 07:13 37.55286 -11.81173 33996 ft 488 kts 244°
2026-05-04 07:14 37.47623 -12.00271 33996 ft 488 kts 244°
2026-05-04 07:15 37.44558 -12.07877 33996 ft 488 kts 244°
2026-05-04 07:15 37.41479 -12.15500 33996 ft 488 kts 244°
2026-05-04 07:16 37.38390 -12.23130 33996 ft 488 kts 244°
2026-05-04 07:16 37.35302 -12.30737 33996 ft 488 kts 244°
2026-05-04 07:17 37.32735 -12.37048 33996 ft 488 kts 244°
2026-05-04 07:17 37.29114 -12.45928 33996 ft 488 kts 244°
2026-05-04 07:18 37.26518 -12.52279 33996 ft 488 kts 244°
2026-05-04 07:18 37.23426 -12.59828 33996 ft 488 kts 244°
2026-05-04 07:19 37.20309 -12.67418 33996 ft 488 kts 244°
2026-05-04 07:19 37.17189 -12.75000 33996 ft 488 kts 244°
2026-05-04 07:20 37.14062 -12.82579 33996 ft 488 kts 244°
2026-05-04 07:20 37.10940 -12.90129 33996 ft 488 kts 244°
2026-05-04 07:22 36.98395 -13.20286 33996 ft 488 kts 244°
2026-05-04 07:23 36.95227 -13.27856 33996 ft 488 kts 244°
2026-05-04 07:23 36.92076 -13.35370 33996 ft 488 kts 243°
2026-05-04 07:24 36.88914 -13.42891 33996 ft 488 kts 243°
2026-05-04 07:24 36.85746 -13.50411 33996 ft 488 kts 243°
2026-05-04 07:26 36.73032 -13.80411 33996 ft 488 kts 243°
2026-05-04 07:27 36.69857 -13.87859 33996 ft 488 kts 243°
2026-05-04 07:27 36.66661 -13.95341 33996 ft 488 kts 243°
2026-05-04 07:28 36.63460 -14.02814 33996 ft 488 kts 243°
2026-05-04 07:28 36.60263 -14.10263 33996 ft 488 kts 243°
2026-05-04 07:29 36.57039 -14.17758 33996 ft 488 kts 243°
2026-05-04 07:29 36.53835 -14.25189 33996 ft 488 kts 243°
2026-05-04 07:30 36.50621 -14.32627 33996 ft 488 kts 243°
2026-05-04 07:30 36.47388 -14.40092 33996 ft 488 kts 243°
2026-05-04 07:31 36.44154 -14.47541 33996 ft 488 kts 243°
2026-05-04 07:33 36.31211 -14.77191 33996 ft 488 kts 243°
2026-05-04 07:33 36.27960 -14.84596 33996 ft 488 kts 243°
2026-05-04 07:34 36.24706 -14.91991 33996 ft 488 kts 243°
2026-05-04 07:34 36.21442 -14.99393 33996 ft 488 kts 243°
2026-05-04 07:35 36.18181 -15.06772 33996 ft 488 kts 243°
2026-05-04 07:35 36.14916 -15.14143 33996 ft 488 kts 243°
2026-05-04 07:36 36.11633 -15.21539 33996 ft 488 kts 242°
2026-05-04 07:38 35.98505 -15.50947 33996 ft 488 kts 242°
2026-05-04 07:38 35.95207 -15.58296 33996 ft 488 kts 242°
2026-05-04 07:39 35.91901 -15.65644 33996 ft 488 kts 242°
2026-05-04 07:39 35.88613 -15.72939 33996 ft 488 kts 242°
2026-05-04 07:40 35.85305 -15.80260 33996 ft 488 kts 242°
2026-05-04 07:40 35.81984 -15.87595 33996 ft 488 kts 242°
2026-05-04 07:41 35.78675 -15.94888 33996 ft 488 kts 242°
2026-05-04 07:41 35.75338 -16.02226 33996 ft 488 kts 242°
2026-05-04 07:42 35.72022 -16.09502 33996 ft 488 kts 242°
2026-05-04 07:42 35.68680 -16.16820 33996 ft 488 kts 242°
2026-05-04 07:43 35.65347 -16.24103 33996 ft 488 kts 242°
2026-05-04 07:43 35.62024 -16.31347 33996 ft 488 kts 242°
2026-05-04 07:44 35.58676 -16.38630 33996 ft 488 kts 242°
2026-05-04 07:44 35.55328 -16.45898 33996 ft 488 kts 242°
2026-05-04 07:45 35.52518 -16.51987 33996 ft 488 kts 242°
2026-05-04 07:45 35.49162 -16.59243 33996 ft 488 kts 242°
2026-05-04 07:46 35.45806 -16.66484 33996 ft 488 kts 242°
2026-05-04 07:46 35.42439 -16.73735 33996 ft 488 kts 242°
2026-05-04 07:47 35.39081 -16.80950 33996 ft 488 kts 242°
2026-05-04 07:49 35.25558 -17.09852 33996 ft 488 kts 241°
2026-05-04 07:49 35.22175 -17.17046 33996 ft 489 kts 241°
2026-05-04 07:50 35.18755 -17.24300 33996 ft 489 kts 241°
2026-05-04 07:50 35.15371 -17.31466 33996 ft 489 kts 241°
2026-05-04 07:51 35.11961 -17.38671 33996 ft 489 kts 241°
2026-05-04 07:51 35.08557 -17.45847 33996 ft 489 kts 241°
2026-05-04 07:52 35.05135 -17.53047 33996 ft 489 kts 241°
2026-05-04 07:52 35.01719 -17.60219 33996 ft 489 kts 241°
2026-05-04 07:54 34.88005 -17.88865 33996 ft 489 kts 241°
2026-05-04 07:55 34.84561 -17.96024 33996 ft 489 kts 241°
2026-05-04 07:55 34.81113 -18.03173 33996 ft 489 kts 241°
2026-05-04 07:56 34.77688 -18.10262 33996 ft 489 kts 241°
2026-05-04 07:56 34.74229 -18.17407 33996 ft 489 kts 241°
2026-05-04 07:57 34.70768 -18.24542 33996 ft 489 kts 241°
2026-05-04 07:57 34.67304 -18.31666 33996 ft 489 kts 241°
2026-05-04 07:58 34.63858 -18.38739 33996 ft 489 kts 240°
2026-05-04 07:58 34.60380 -18.45866 33996 ft 489 kts 240°
2026-05-04 07:59 34.56899 -18.52983 33996 ft 489 kts 240°
2026-05-04 07:59 34.53415 -18.60091 33996 ft 489 kts 240°
2026-05-04 08:00 34.49938 -18.67171 33996 ft 489 kts 240°
2026-05-04 08:02 34.35968 -18.95476 33996 ft 489 kts 240°
2026-05-04 08:02 34.32462 -19.02544 33996 ft 489 kts 240°
2026-05-04 08:03 34.28977 -19.09557 33996 ft 489 kts 240°
2026-05-04 08:03 34.25462 -19.16614 33996 ft 489 kts 240°
2026-05-04 08:04 34.21950 -19.23653 33996 ft 489 kts 240°
2026-05-04 08:04 34.18424 -19.30705 33996 ft 489 kts 240°
2026-05-04 08:05 34.14914 -19.37713 33996 ft 489 kts 240°
2026-05-04 08:05 34.11386 -19.44741 33996 ft 489 kts 240°
2026-05-04 08:06 34.07859 -19.51754 33996 ft 489 kts 240°
2026-05-04 08:06 34.04323 -19.58771 33996 ft 489 kts 240°
2026-05-04 08:08 33.90143 -19.86773 33996 ft 489 kts 240°
2026-05-04 08:11 33.74106 -20.18181 33996 ft 489 kts 240°
2026-05-04 08:11 33.68762 -20.28586 33996 ft 489 kts 240°
2026-05-04 08:12 33.65790 -20.34361 33996 ft 489 kts 239°
2026-05-04 08:12 33.62206 -20.41311 33996 ft 489 kts 239°
2026-05-04 08:13 33.58599 -20.48293 33996 ft 489 kts 239°
2026-05-04 08:13 33.55027 -20.55194 33996 ft 489 kts 239°
2026-05-04 08:14 33.51425 -20.62141 33996 ft 489 kts 239°
2026-05-04 08:16 33.37006 -20.89813 33996 ft 489 kts 239°
2026-05-04 08:16 33.33390 -20.96720 33996 ft 489 kts 239°
2026-05-04 08:17 33.29785 -21.03594 33996 ft 489 kts 239°
2026-05-04 08:17 33.26165 -21.10483 33996 ft 489 kts 239°
2026-05-04 08:19 33.11636 -21.38002 33996 ft 489 kts 239°
2026-05-04 08:20 33.07972 -21.44909 33996 ft 489 kts 239°
2026-05-04 08:20 33.04336 -21.51750 33996 ft 489 kts 239°
2026-05-04 08:21 33.00683 -21.58612 33996 ft 489 kts 239°
2026-05-04 08:21 32.97045 -21.65433 33996 ft 489 kts 239°
2026-05-04 08:22 32.93397 -21.72259 33996 ft 489 kts 239°
2026-05-04 08:24 32.78722 -21.99594 33996 ft 489 kts 239°
2026-05-04 08:24 32.75057 -22.06390 33996 ft 489 kts 239°
2026-05-04 08:25 32.71379 -22.13196 33996 ft 489 kts 239°
2026-05-04 08:25 32.67689 -22.20014 33996 ft 489 kts 239°
2026-05-04 08:27 32.52932 -22.47153 33996 ft 489 kts 238°
2026-05-04 08:28 32.49233 -22.53925 33996 ft 489 kts 238°
2026-05-04 08:28 32.45533 -22.60687 33996 ft 489 kts 238°
2026-05-04 08:29 32.41812 -22.67473 33996 ft 489 kts 238°
2026-05-04 08:31 32.26938 -22.94485 33996 ft 489 kts 238°
2026-05-04 08:33 32.12003 -23.21416 33996 ft 489 kts 238°
2026-05-04 08:35 31.97018 -23.48244 33996 ft 489 kts 238°
2026-05-04 08:35 31.93264 -23.54937 33996 ft 489 kts 238°
2026-05-04 08:37 31.80100 -23.78309 33996 ft 489 kts 238°
2026-05-04 08:38 31.76948 -23.83885 33996 ft 489 kts 238°
2026-05-04 08:38 31.73180 -23.90540 33996 ft 489 kts 238°
2026-05-04 08:40 31.58037 -24.17167 33996 ft 489 kts 238°
2026-05-04 08:41 31.54252 -24.23794 33996 ft 489 kts 238°
2026-05-04 08:41 31.50457 -24.30428 33996 ft 489 kts 238°
2026-05-04 08:42 31.46654 -24.37064 33996 ft 489 kts 238°
2026-05-04 08:42 31.42855 -24.43680 33996 ft 489 kts 237°
2026-05-04 08:43 31.39044 -24.50307 33996 ft 489 kts 237°
2026-05-04 08:43 31.35226 -24.56936 33996 ft 489 kts 237°
2026-05-04 08:44 31.31409 -24.63550 33996 ft 489 kts 237°
2026-05-04 08:46 31.16129 -24.89919 33996 ft 489 kts 237°
2026-05-04 08:46 31.12316 -24.96471 33996 ft 489 kts 237°
2026-05-04 08:47 31.08465 -25.03079 33996 ft 489 kts 237°
2026-05-04 08:47 31.04650 -25.09612 33996 ft 489 kts 237°
2026-05-04 08:48 31.00806 -25.16185 33996 ft 489 kts 237°
2026-05-04 08:48 30.96972 -25.22730 33996 ft 489 kts 237°
2026-05-04 08:49 30.93114 -25.29304 33996 ft 489 kts 237°